When you browse on this site, cookies collect data to enhance your experience and personalize the content and advertising you see.
Visit our Privacy Policy to learn more. By continuing to use the site, you agree to this use of cookies and data.
  • In Deutschland
  • Länderverzeichnis
  • Für 7 Tage
  • Wassertemperatur
  • Wetterkarte
  • Widgets
  • user-avatar
    Anmelden

    Stündliche Wetter Constantine

    Heute, 31 Mai, Sonntag

    Zeit Temperatur Niederschläge Wind Luftdruck Luftfeuchtigkeit
    00:00 +13°C° 0 mm 0 m/S 709 mmHg 75%
    01:00 +13°C° 0 mm 0 m/S 709 mmHg 74%
    02:00 +12°C° 0 mm 0 m/S 708 mmHg 73%
    03:00 +12°C° 0 mm 0 m/S 708 mmHg 72%
    04:00 +13°C° 0 mm 0 m/S 708 mmHg 66%
    05:00 +15°C° 0 mm 0 m/S 708 mmHg 61%
    06:00 +16°C° 0 mm 0 m/S 709 mmHg 54%
    07:00 +18°C° 0 mm 0 m/S 709 mmHg 47%
    08:00 +20°C° 0 mm 0 m/S 710 mmHg 40%
    09:00 +22°C° 0 mm 0 m/S 710 mmHg 33%
    10:00 +25°C° 0 mm 1 m/S 710 mmHg 30%
    11:00 +26°C° 0 mm 1 m/S 710 mmHg 28%
    12:00 +28°C° 0 mm 2 m/S 710 mmHg 25%
    13:00 +28°C° 0 mm 2 m/S 710 mmHg 26%
    14:00 +28°C° 0 mm 3 m/S 710 mmHg 27%
    15:00 +28°C° 0 mm 3 m/S 710 mmHg 29%
    16:00 +27°C° 0 mm 3 m/S 709 mmHg 37%
    17:00 +25°C° 0 mm 2 m/S 709 mmHg 45%
    18:00 +23°C° 0 mm 2 m/S 708 mmHg 53%
    19:00 +21°C° 0 mm 2 m/S 708 mmHg 56%
    20:00 +20°C° 0 mm 2 m/S 708 mmHg 59%
    21:00 +19°C° 0 mm 2 m/S 709 mmHg 62%
    22:00 +20°C° 0 mm 1 m/S 708 mmHg 62%
    23:00 +20°C° 0 mm 1 m/S 708 mmHg 62%

    Morgen, 1 Juni, Montag

    Zeit Temperatur Niederschläge Wind Luftdruck Luftfeuchtigkeit
    00:00 +19°C° 0 mm 1 m/S 707 mmHg 62%
    01:00 +19°C° 0.2 mm 1 m/S 707 mmHg 64%
    02:00 +19°C° 0.2 mm 1 m/S 707 mmHg 65%
    03:00 +19°C° 0.2 mm 1 m/S 707 mmHg 66%
    04:00 +19°C° 0.4 mm 1 m/S 707 mmHg 65%
    05:00 +20°C° 0.4 mm 1 m/S 707 mmHg 63%
    06:00 +21°C° 0.4 mm 1 m/S 708 mmHg 62%
    07:00 +23°C° 0.5 mm 1 m/S 708 mmHg 58%
    08:00 +25°C° 0.5 mm 1 m/S 709 mmHg 54%
    09:00 +26°C° 0.5 mm 1 m/S 709 mmHg 50%
    10:00 +28°C° 0 mm 1 m/S 709 mmHg 47%
    11:00 +29°C° 0 mm 2 m/S 709 mmHg 44%
    12:00 +30°C° 0 mm 3 m/S 709 mmHg 40%
    13:00 +30°C° 0 mm 3 m/S 709 mmHg 42%
    14:00 +29°C° 0 mm 4 m/S 709 mmHg 44%
    15:00 +29°C° 0 mm 4 m/S 709 mmHg 46%
    16:00 +27°C° 0 mm 4 m/S 708 mmHg 52%
    17:00 +26°C° 0 mm 4 m/S 708 mmHg 57%
    18:00 +24°C° 0 mm 3 m/S 708 mmHg 63%
    19:00 +22°C° 0 mm 3 m/S 708 mmHg 68%
    20:00 +20°C° 0 mm 2 m/S 709 mmHg 74%
    21:00 +20°C° 0 mm 1 m/S 709 mmHg 79%
    22:00 +19°C° 0 mm 1 m/S 709 mmHg 79%
    23:00 +17°C° 0 mm 0 m/S 709 mmHg 79%

    übermorgen, 2 Juni, Dienstag

    Zeit Temperatur Niederschläge Wind Luftdruck Luftfeuchtigkeit
    00:00 +17°C° 0 mm 0 m/S 708 mmHg 79%
    01:00 +17°C° 0 mm 0 m/S 708 mmHg 79%
    02:00 +16°C° 0 mm 0 m/S 708 mmHg 79%
    03:00 +16°C° 0 mm 0 m/S 708 mmHg 79%
    04:00 +17°C° 0 mm 0 m/S 708 mmHg 75%
    05:00 +18°C° 0 mm 0 m/S 709 mmHg 70%
    06:00 +19°C° 0 mm 0 m/S 709 mmHg 65%
    07:00 +24°C° 0 mm 1 m/S 710 mmHg 57%
    08:00 +26°C° 0 mm 1 m/S 710 mmHg 49%
    09:00 +28°C° 0 mm 1 m/S 710 mmHg 41%
    10:00 +29°C° 0 mm 2 m/S 710 mmHg 38%
    11:00 +30°C° 0 mm 2 m/S 710 mmHg 34%
    12:00 +31°C° 0 mm 3 m/S 710 mmHg 30%
    13:00 +31°C° 0 mm 3 m/S 709 mmHg 31%
    14:00 +32°C° 0 mm 4 m/S 709 mmHg 31%
    15:00 +32°C° 0 mm 5 m/S 709 mmHg 32%
    16:00 +29°C° 0 mm 4 m/S 708 mmHg 37%
    17:00 +28°C° 0 mm 3 m/S 708 mmHg 41%
    18:00 +26°C° 0 mm 3 m/S 707 mmHg 46%
    19:00 +25°C° 0 mm 2 m/S 707 mmHg 49%
    20:00 +23°C° 0 mm 1 m/S 707 mmHg 52%
    21:00 +22°C° 0 mm 1 m/S 708 mmHg 55%
    22:00 +22°C° 0 mm 1 m/S 707 mmHg 55%
    23:00 +22°C° 0 mm 1 m/S 707 mmHg 55%

    3 Juni, Mittwoch

    Zeit Temperatur Niederschläge Wind Luftdruck Luftfeuchtigkeit
    00:00 +20°C° 0 mm 0 m/S 706 mmHg 55%
    01:00 +20°C° 0 mm 0 m/S 706 mmHg 55%
    02:00 +19°C° 0 mm 0 m/S 706 mmHg 55%
    03:00 +19°C° 0 mm 0 m/S 706 mmHg 55%
    04:00 +20°C° 0 mm 0 m/S 706 mmHg 52%
    05:00 +22°C° 0 mm 0 m/S 706 mmHg 50%
    06:00 +23°C° 0 mm 0 m/S 706 mmHg 47%
    07:00 +26°C° 0 mm 1 m/S 707 mmHg 42%
    08:00 +28°C° 0 mm 2 m/S 707 mmHg 38%
    09:00 +29°C° 0 mm 2 m/S 708 mmHg 33%
    10:00 +30°C° 0 mm 2 m/S 708 mmHg 31%
    11:00 +31°C° 0 mm 3 m/S 708 mmHg 29%
    12:00 +33°C° 0 mm 3 m/S 707 mmHg 26%
    13:00 +33°C° 0 mm 3 m/S 707 mmHg 27%
    14:00 +33°C° 0 mm 3 m/S 707 mmHg 27%
    15:00 +33°C° 0 mm 3 m/S 707 mmHg 28%
    16:00 +31°C° 0 mm 3 m/S 706 mmHg 33%
    17:00 +29°C° 0 mm 3 m/S 706 mmHg 39%
    18:00 +28°C° 0 mm 2 m/S 706 mmHg 44%
    19:00 +26°C° 0 mm 2 m/S 706 mmHg 48%
    20:00 +25°C° 0 mm 1 m/S 706 mmHg 51%
    21:00 +23°C° 0 mm 1 m/S 706 mmHg 55%
    22:00 +23°C° 0 mm 1 m/S 706 mmHg 55%
    23:00 +21°C° 0 mm 0 m/S 706 mmHg 56%

    4 Juni, Donnerstag

    Zeit Temperatur Niederschläge Wind Luftdruck Luftfeuchtigkeit
    00:00 +21°C° 0 mm 0 m/S 705 mmHg 56%
    01:00 +22°C° 0 mm 1 m/S 705 mmHg 55%
    02:00 +22°C° 0 mm 1 m/S 705 mmHg 54%
    03:00 +22°C° 0 mm 1 m/S 705 mmHg 53%
    04:00 +23°C° 0 mm 1 m/S 705 mmHg 50%
    05:00 +25°C° 0 mm 1 m/S 705 mmHg 47%
    06:00 +26°C° 0 mm 1 m/S 706 mmHg 45%
    07:00 +28°C° 0 mm 1 m/S 706 mmHg 40%
    08:00 +30°C° 0 mm 1 m/S 707 mmHg 36%
    09:00 +32°C° 0 mm 1 m/S 707 mmHg 31%
    10:00 +35°C° 0 mm 2 m/S 707 mmHg 28%
    11:00 +36°C° 0 mm 2 m/S 707 mmHg 25%
    12:00 +37°C° 0 mm 2 m/S 707 mmHg 22%
    13:00 +37°C° 0 mm 2 m/S 707 mmHg 22%
    14:00 +37°C° 0 mm 3 m/S 706 mmHg 21%
    15:00 +37°C° 0 mm 3 m/S 706 mmHg 21%
    16:00 +35°C° 0 mm 3 m/S 706 mmHg 28%
    17:00 +33°C° 0 mm 3 m/S 705 mmHg 34%
    18:00 +29°C° 0 mm 3 m/S 705 mmHg 41%
    19:00 +28°C° 0 mm 2 m/S 705 mmHg 45%
    20:00 +26°C° 0 mm 1 m/S 705 mmHg 48%
    21:00 +24°C° 0 mm 1 m/S 705 mmHg 52%
    22:00 +24°C° 0 mm 1 m/S 704 mmHg 51%
    23:00 +24°C° 0 mm 1 m/S 704 mmHg 50%

    5 Juni, Freitag

    Zeit Temperatur Niederschläge Wind Luftdruck Luftfeuchtigkeit
    00:00 +24°C° 0 mm 1 m/S 704 mmHg 50%
    01:00 +23°C° 0 mm 1 m/S 704 mmHg 51%
    02:00 +23°C° 0 mm 1 m/S 704 mmHg 53%
    03:00 +22°C° 0 mm 1 m/S 704 mmHg 54%
    04:00 +23°C° 0 mm 1 m/S 704 mmHg 54%
    05:00 +23°C° 0 mm 1 m/S 704 mmHg 55%
    06:00 +23°C° 0 mm 1 m/S 705 mmHg 55%
    07:00 +25°C° 0 mm 1 m/S 705 mmHg 49%
    08:00 +27°C° 0 mm 1 m/S 705 mmHg 43%
    09:00 +30°C° 0 mm 1 m/S 706 mmHg 37%
    10:00 +32°C° 0 mm 2 m/S 706 mmHg 32%
    11:00 +35°C° 0 mm 3 m/S 706 mmHg 26%
    12:00 +37°C° 0 mm 5 m/S 707 mmHg 20%
    13:00 +36°C° 0 mm 5 m/S 707 mmHg 21%
    14:00 +36°C° 0 mm 6 m/S 706 mmHg 23%
    15:00 +36°C° 0 mm 7 m/S 706 mmHg 24%
    16:00 +33°C° 0 mm 6 m/S 706 mmHg 31%
    17:00 +30°C° 0 mm 5 m/S 706 mmHg 38%
    18:00 +27°C° 0 mm 4 m/S 705 mmHg 45%
    19:00 +25°C° 0 mm 3 m/S 706 mmHg 50%
    20:00 +23°C° 0 mm 2 m/S 706 mmHg 55%
    21:00 +21°C° 0 mm 1 m/S 707 mmHg 60%
    22:00 +21°C° 0 mm 1 m/S 707 mmHg 60%
    23:00 +21°C° 0 mm 1 m/S 707 mmHg 60%
    Mehr zeigen